Theta_e
341 340 339 339 338 338 338 338 338 338 337 338 338 338 338 338 338 338 337 337 337 337 337 337 337 337 337 337 337 337 337 337 337 337 337 337 337 337 337 337 337 337 337 337 337 337 337 337 337 337 337 336 336 336 335 335 335 334 334 333 332 332 332 331 331 330 330 330 330 330 330 330 330 330 330 330 330 330 330 330 331 331 331 332 332 332 332 331 331 331 330 330 330 330 330 330 328 321 315 312 311 313 320
340 339 339 339 338 338 337 337 337 337 337 337 337 337 337 337 337 337 337 337 336 336 336 336 336 336 336 336 337 337 337 336 336 336 336 336 336 336 336 336 336 336 336 336 336 336 336 336 336 336 336 336 336 335 335 335 335 334 334 334 333 332 332 331 331 330 330 330 330 330 330 330 330 330 330 330 330 330 330 330 331 331 332 332 332 331 331 331 331 330 330 330 330 330 330 328 326 319 314 311 310 311 317
340 339 339 338 338 338 338 337 337 336 337 336 336 336 336 337 337 336 336 336 336 336 336 336 336 336 336 336 336 336 336 336 336 336 336 335 335 336 336 336 335 336 336 336 336 336 335 335 336 336 336 336 335 334 334 335 334 334 333 333 333 333 332 332 331 331 331 331 331 331 330 331 331 331 331 331 331 331 331 331 332 332 332 332 332 331 331 331 331 330 330 330 330 330 329 326 323 318 315 312 310 311 314
339 339 339 339 338 338 337 337 337 337 336 335 335 335 335 335 336 336 336 336 336 336 336 335 335 335 335 335 335 335 335 335 335 335 335 335 335 335 335 334 332 333 334 334 335 335 335 335 335 335 335 334 333 333 334 335 334 334 333 333 333 333 332 332 331 331 332 332 331 331 331 331 331 331 332 332 332 332 332 332 332 332 332 332 332 331 331 331 331 331 331 330 330 329 326 322 320 318 316 314 311 310 312
339 339 339 339 338 338 337 337 337 337 336 335 334 334 334 335 335 335 335 335 335 335 335 335 335 335 335 335 335 335 335 335 335 335 335 335 335 334 334 332 328 329 329 330 331 332 332 334 335 334 334 333 332 334 334 335 334 334 333 333 333 332 332 332 332 332 332 333 333 332 332 332 332 332 333 333 333 333 332 332 332 332 332 331 331 331 331 331 331 330 331 330 330 326 322 320 319 317 316 315 313 309 312
339 338 338 338 338 337 337 336 337 336 335 335 333 334 334 334 334 334 334 334 335 335 335 335 335 335 335 335 335 335 335 334 334 334 334 334 334 334 331 328 326 325 324 324 325 325 328 331 332 332 332 331 332 333 333 334 334 334 334 333 333 332 332 332 332 333 333 333 332 332 333 333 333 333 333 333 333 333 333 332 331 331 330 330 329 330 330 330 330 330 331 330 328 323 321 320 318 317 316 315 313 309 313
337 337 337 337 337 336 336 336 336 335 334 334 333 333 333 333 333 332 332 332 332 333 333 333 334 334 334 334 334 333 333 333 331 332 333 333 333 331 328 325 325 324 323 322 321 321 324 328 327 329 330 331 332 332 333 333 334 333 333 333 333 333 333 333 333 333 333 333 333 333 332 332 332 333 333 333 333 334 333 331 327 327 327 327 327 328 329 329 329 330 330 328 324 322 320 320 318 316 315 314 310 309 314
337 337 337 336 336 336 336 336 335 334 333 333 333 333 332 332 332 331 331 330 330 330 331 331 331 332 332 332 331 331 331 330 329 329 330 330 329 327 325 325 324 324 323 322 321 320 321 323 323 327 329 330 331 331 332 332 333 333 333 333 332 332 332 333 333 333 333 333 333 333 333 333 333 333 333 333 334 333 332 329 324 322 322 322 322 324 326 327 328 328 327 325 321 321 320 319 318 316 315 313 310 311 315
337 337 337 336 335 335 335 335 334 334 333 333 333 333 332 332 332 331 330 330 329 329 329 329 329 330 330 329 328 329 329 328 327 327 327 327 326 325 325 324 324 323 322 321 321 321 322 323 323 326 328 329 330 331 331 332 332 332 332 332 331 332 332 332 332 332 332 333 333 333 333 333 333 332 332 332 332 332 328 324 321 320 319 318 317 319 322 325 326 325 323 321 320 320 319 318 317 316 314 313 312 311 315
337 336 336 335 335 335 335 334 334 332 333 333 332 332 332 332 332 331 331 330 330 329 329 328 327 327 328 328 327 327 327 327 327 327 327 327 326 325 325 325 324 324 322 321 321 323 326 327 326 326 326 326 328 329 330 330 330 330 330 330 330 331 331 331 331 331 331 331 332 332 332 331 331 330 329 328 329 325 322 319 317 317 316 316 316 315 317 321 323 322 320 319 319 318 317 317 316 315 314 313 312 311 314
337 336 336 336 336 335 334 333 332 332 332 332 332 331 331 331 331 331 331 331 331 330 330 329 328 327 325 324 323 324 325 325 326 326 326 325 325 325 325 325 324 322 323 323 323 323 325 326 324 321 321 321 323 325 326 327 327 326 326 327 327 329 328 327 325 325 325 327 329 328 327 327 327 325 321 319 319 317 315 314 314 314 314 314 314 312 314 317 320 321 321 320 319 317 316 315 315 314 314 313 312 311 312
337 336 336 335 335 334 334 332 331 331 331 331 331 331 331 330 330 330 330 330 329 329 328 328 327 324 321 319 318 319 319 320 321 321 322 322 322 322 322 322 321 319 321 322 323 322 322 321 319 318 319 320 321 321 322 323 322 321 322 322 322 326 324 322 319 319 319 321 322 319 319 320 320 318 315 313 313 313 313 312 312 312 312 311 311 311 312 313 316 317 318 318 316 315 315 315 315 315 315 314 313 313 312
336 336 335 335 334 334 333 331 330 331 331 331 331 331 330 329 328 328 328 328 327 326 326 325 323 320 319 317 318 318 318 318 318 318 319 319 319 319 318 318 318 316 317 319 320 320 320 319 318 319 320 320 320 320 321 321 321 320 319 319 319 323 322 318 317 317 317 317 317 315 315 316 315 315 315 315 314 314 314 313 312 312 311 311 310 311 311 311 312 312 313 314 313 313 314 314 315 315 314 313 313 313 313
336 335 335 334 334 333 332 331 330 331 331 331 331 331 330 328 327 327 327 326 326 324 323 321 320 319 319 320 321 321 321 321 321 320 319 319 319 318 318 317 316 316 316 316 316 317 317 318 318 317 318 319 319 320 320 320 319 319 319 318 318 319 319 318 317 317 317 317 317 317 316 316 316 315 316 316 316 315 315 315 314 312 312 311 309 309 310 310 310 309 309 310 311 311 312 312 313 313 313 312 311 311 313
335 334 334 333 332 331 331 330 330 331 331 331 330 329 328 327 327 326 325 324 323 322 321 320 319 320 321 322 323 323 322 322 322 321 321 320 320 320 321 321 320 320 319 319 318 318 318 319 320 319 319 320 320 320 320 320 319 319 319 319 319 318 318 318 318 318 317 317 317 318 318 317 317 316 316 316 316 315 315 315 315 313 312 310 309 309 309 309 310 309 308 308 309 309 310 310 311 311 311 311 309 310 311
333 333 332 331 330 330 329 329 329 330 330 329 329 327 327 326 326 325 325 324 323 322 320 320 321 322 322 322 322 322 322 322 322 322 321 322 322 322 322 321 321 321 321 321 321 320 320 321 321 320 320 321 320 320 320 320 320 320 319 319 319 319 318 318 317 317 317 317 318 318 318 317 317 316 315 315 315 315 315 315 315 314 313 311 310 310 310 310 311 310 310 309 309 309 309 309 309 309 309 310 309 309 310
331 330 330 329 329 328 329 328 329 329 328 327 326 326 325 325 325 324 324 323 323 321 321 322 322 323 322 322 321 322 322 322 322 322 322 321 322 322 322 322 321 321 321 320 320 320 320 320 320 320 320 321 320 320 320 320 320 320 320 319 319 319 319 318 317 317 318 318 318 318 318 317 317 316 315 315 315 315 315 314 315 314 313 312 311 310 310 310 310 310 309 308 308 308 308 308 307 307 308 309 308 307 308
329 329 328 328 328 328 328 328 328 328 327 326 325 325 324 323 323 323 323 323 322 322 322 322 323 322 322 321 322 322 322 321 322 322 322 321 321 321 321 322 321 321 321 320 320 320 319 318 318 319 319 319 319 319 320 320 320 320 320 320 320 319 319 319 318 317 317 318 318 317 317 317 317 316 316 316 317 316 315 314 314 313 313 313 311 312 311 310 309 309 308 307 307 307 307 307 307 307 307 308 308 307 307
328 327 327 327 328 328 328 328 327 326 325 324 323 323 323 323 323 322 322 322 322 322 322 323 322 322 322 322 322 322 322 322 322 322 322 322 321 321 321 321 321 321 321 320 320 319 319 318 318 318 318 318 318 319 320 320 319 319 319 319 319 319 318 319 318 317 316 317 317 317 316 316 317 317 317 317 317 316 316 315 314 314 313 312 312 312 312 310 310 309 308 308 307 307 308 308 308 308 308 309 309 309 308
327 326 326 328 328 328 328 327 326 325 324 323 323 322 323 323 323 323 323 323 323 323 323 323 323 322 322 322 322 322 322 322 322 322 322 321 321 321 321 322 321 321 321 321 321 320 320 319 319 318 318 318 318 317 318 318 319 319 319 319 319 319 319 318 318 318 317 317 317 317 317 316 316 316 316 316 315 315 314 314 315 314 314 313 312 312 311 311 311 311 310 309 308 308 308 308 308 309 310 310 311 310 310
325 326 327 328 328 328 327 327 325 324 323 322 323 322 323 324 324 324 323 323 323 323 323 323 323 322 322 322 322 323 323 322 322 322 322 322 322 321 321 322 322 322 322 321 321 321 320 320 320 318 318 318 318 318 318 318 318 319 319 320 319 320 319 319 319 318 318 318 317 317 317 316 316 316 316 315 315 314 314 313 314 314 314 313 312 312 312 312 313 313 312 311 310 310 310 310 310 310 310 311 311 311 311
325 326 327 328 328 328 327 326 325 323 322 322 322 322 323 324 324 324 323 323 323 323 323 323 323 323 323 323 324 324 324 323 323 322 322 321 322 322 322 322 322 323 322 322 322 321 321 320 320 319 318 318 318 318 318 319 319 320 320 320 320 320 320 320 320 319 319 318 318 317 317 316 316 316 316 316 315 315 315 315 314 314 314 314 313 313 313 313 313 313 313 312 311 312 312 311 311 311 311 311 311 311 312
325 326 327 327 328 327 326 325 324 323 322 323 322 323 323 324 323 323 323 324 324 324 323 323 323 323 324 325 324 325 324 324 323 323 322 322 322 323 323 323 323 323 323 323 322 321 321 320 320 319 319 318 318 319 319 319 321 321 321 321 321 321 320 320 320 320 319 318 318 317 316 315 315 315 315 315 314 315 315 315 315 314 314 314 313 313 313 313 313 313 313 313 313 313 312 312 312 312 311 311 311 312 312
325 325 326 327 327 326 325 324 323 323 323 323 323 323 323 323 323 323 323 324 324 324 324 324 323 324 324 324 324 324 325 324 324 323 322 322 323 324 324 324 323 324 324 324 323 322 321 320 319 318 319 319 319 319 320 321 322 322 322 322 321 321 321 321 320 319 319 318 317 317 316 315 315 315 315 315 315 315 315 315 315 315 315 314 314 313 313 313 313 313 312 312 312 312 312 312 311 311 311 311 311 312 312
325 325 326 326 326 326 325 324 324 324 323 323 324 323 324 323 324 324 324 324 324 324 324 324 323 324 324 324 324 324 324 324 324 323 323 323 323 324 323 323 322 323 324 324 323 321 320 319 320 318 318 319 320 321 321 322 322 322 321 322 321 321 321 319 318 318 318 317 316 315 315 315 315 315 315 316 316 315 315 314 314 313 313 312 312 311 312 312 312 311 311 311 311 310 310 310 310 309 310 310 309 310 310
325 325 326 326 326 325 324 324 324 323 324 324 324 324 324 324 324 325 325 324 324 324 324 323 323 323 324 324 324 324 324 324 324 323 323 323 323 323 322 322 321 322 322 322 322 321 319 318 319 319 320 320 321 322 322 322 322 322 322 321 320 320 320 319 317 317 317 316 316 315 314 313 313 314 314 314 314 313 312 311 311 311 310 310 309 309 309 309 309 308 309 309 308 308 308 308 307 307 308 308 308 308 308
325 325 326 326 325 324 324 324 323 324 324 324 324 324 324 324 324 324 325 324 324 324 324 324 324 324 324 324 324 324 324 324 324 324 323 323 322 322 322 321 321 320 320 320 320 320 320 318 318 320 321 321 321 321 321 322 321 321 320 320 318 318 318 317 316 315 315 314 313 312 311 310 310 310 311 311 311 310 309 308 308 307 307 306 306 306 306 306 306 305 305 305 306 305 306 306 305 305 305 306 306 306 306
325 326 326 325 324 324 323 324 324 324 324 324 324 325 325 325 325 325 325 325 325 325 325 325 325 325 325 325 324 325 325 325 324 324 324 323 322 321 321 321 320 319 319 319 319 320 320 320 320 321 322 322 322 322 321 321 320 320 319 318 317 316 316 315 314 313 312 311 310 309 308 307 307 307 308 308 308 307 306 305 305 304 303 303 303 303 303 304 303 303 303 303 303 303 304 304 303 303 303 304 304 304 305
324 324 324 324 324 324 324 324 324 324 324 324 324 324 324 325 324 325 325 325 326 326 326 325 326 326 326 325 325 325 325 325 325 324 324 324 323 321 320 319 319 318 318 319 319 320 321 321 321 321 321 321 322 321 320 319 319 318 316 315 315 314 313 312 311 309 309 308 307 306 305 305 305 304 304 304 304 304 303 303 303 302 301 301 301 301 301 301 302 302 302 302 302 302 302 302 302 302 302 302 302 303 303
324 324 324 324 324 324 324 324 324 324 324 324 324 324 324 324 324 325 326 326 326 327 326 326 326 326 326 326 326 326 325 325 325 323 323 322 321 319 318 317 318 318 319 319 320 320 320 320 320 319 319 319 319 318 318 318 317 315 314 312 312 311 310 309 308 307 306 305 305 304 303 303 303 302 302 302 302 302 301 301 301 300 300 300 300 299 300 300 301 301 302 302 302 302 302 302 301 301 300 300 301 301 301
324 325 325 324 324 324 324 324 324 324 324 325 325 325 325 326 326 326 326 326 326 326 326 326 326 326 326 326 326 326 325 324 323 321 320 318 316 315 315 315 317 317 318 319 320 319 318 317 316 314 314 314 313 313 313 313 313 312 311 311 309 308 307 306 305 305 304 303 303 302 302 302 302 301 301 300 300 300 300 299 299 299 298 298 298 298 298 299 299 300 300 301 301 301 301 300 300 300 299 299 299 300 300
325 325 325 324 324 324 324 324 324 324 325 324 325 325 326 326 326 326 327 326 327 326 326 325 326 326 326 326 326 326 324 322 319 317 315 314 312 312 311 312 314 315 317 318 318 317 315 313 311 310 309 308 308 308 308 308 308 309 309 308 307 306 305 304 303 303 302 302 302 301 301 301 301 300 300 299 299 299 298 298 297 298 297 297 297 297 297 297 298 299 299 299 299 299 299 299 299 299 299 299 299 299 298
325 325 325 324 324 324 324 324 324 325 324 325 325 326 326 326 326 326 326 326 326 325 324 324 324 324 324 324 325 323 321 318 316 314 312 311 310 310 309 310 311 312 314 315 315 314 312 310 308 307 306 305 305 305 305 305 305 306 306 306 305 304 303 302 301 301 301 301 301 300 300 300 300 299 299 298 298 298 297 297 296 296 296 296 296 296 296 296 296 297 297 297 298 298 298 298 298 299 299 300 300 299 297
325 325 325 324 324 324 325 325 325 325 325 325 326 326 326 326 326 326 326 325 324 323 322 321 320 321 321 320 320 319 317 315 313 312 311 309 308 308 308 308 309 309 310 310 311 310 309 308 307 306 305 304 303 303 303 303 303 303 304 304 303 302 301 300 299 299 299 300 300 299 299 299 298 298 298 298 297 297 297 296 295 295 295 295 295 295 296 295 295 295 296 296 297 297 297 297 297 298 299 300 299 298 297
325 325 324 324 324 325 325 325 326 326 326 326 326 326 326 326 326 326 325 324 322 320 319 318 318 317 317 316 316 314 313 312 311 310 309 308 307 306 306 306 307 306 306 307 307 307 307 306 306 305 304 303 302 302 301 301 301 301 302 302 302 301 300 299 298 298 298 298 298 298 298 298 297 297 297 297 297 296 296 295 295 294 295 295 294 294 294 294 293 294 295 295 295 295 296 296 296 297 297 297 297 297 296
325 325 325 324 324 325 325 325 326 326 326 326 326 326 326 325 325 324 322 321 319 318 317 316 315 315 314 313 312 312 311 310 309 308 307 306 305 305 305 305 305 305 304 304 304 305 305 305 305 304 303 302 301 301 300 300 299 300 300 301 300 299 298 297 297 297 297 297 297 297 297 297 296 296 296 296 296 296 295 295 294 294 294 294 294 293 293 293 293 294 294 294 294 295 295 295 295 296 295 295 295 295 295
324 325 325 325 324 325 325 326 326 326 326 326 325 325 325 324 323 321 319 317 316 315 315 314 313 312 312 311 310 310 309 308 307 306 305 304 304 304 304 303 304 303 303 303 303 303 303 303 303 303 302 301 300 299 299 299 298 299 300 300 299 298 297 296 295 295 295 295 295 295 295 295 296 295 294 295 295 296 295 294 293 293 293 293 292 292 292 292 293 293 293 293 293 294 293 293 295 294 293 293 293 294 294
324 325 324 324 324 325 325 326 326 325 325 324 324 324 323 323 321 319 317 315 314 313 312 312 311 310 310 309 308 308 307 306 305 304 303 303 303 302 302 302 302 302 302 302 301 301 301 301 302 302 301 300 299 298 298 298 298 298 298 299 298 297 295 295 294 294 294 294 294 294 294 295 296 296 294 293 293 293 293 293 293 292 292 292 291 290 290 290 291 291 291 291 292 292 292 292 295 292 291 291 292 292 293
325 324 324 324 324 325 325 325 325 324 323 323 323 323 322 321 319 317 315 313 312 311 310 310 309 309 308 307 306 306 305 305 304 303 302 301 301 301 301 300 300 300 300 300 300 300 300 300 300 301 301 300 299 298 297 297 297 297 298 298 297 296 295 294 292 292 293 293 294 294 293 293 294 295 294 293 291 291 291 292 292 291 291 291 290 289 288 288 288 288 289 289 290 290 291 291 293 290 290 290 291 291 291
325 324 324 324 324 325 325 324 324 323 323 322 322 323 322 321 319 317 315 313 312 311 310 309 308 308 307 305 305 305 304 303 303 302 301 301 300 300 300 299 299 299 298 298 299 298 299 299 299 299 299 298 298 297 297 296 296 296 297 297 296 295 294 293 293 293 293 293 293 292 292 292 292 293 293 293 291 290 290 290 290 290 290 290 288 287 286 285 286 286 286 287 288 289 289 290 290 289 289 289 289 290 291
325 324 324 324 324 325 324 324 323 322 322 322 322 322 322 321 320 318 315 313 312 311 310 309 308 307 306 305 304 304 303 303 302 301 301 300 299 299 299 299 298 298 297 297 297 297 297 298 298 298 297 297 296 296 296 295 295 295 295 296 295 295 293 292 292 292 292 292 291 291 291 291 291 291 291 291 291 290 289 290 290 290 290 289 287 286 285 284 284 284 284 284 285 286 288 289 289 289 288 288 289 289 290
324 324 324 324 324 324 324 323 323 322 322 322 323 323 322 321 320 318 315 313 312 311 310 309 308 307 306 305 305 304 303 302 302 301 300 299 299 298 298 298 297 297 296 296 296 296 296 296 296 296 296 296 296 295 295 295 295 295 294 295 295 294 292 291 291 290 290 291 291 290 290 290 290 290 290 290 290 290 289 289 290 290 289 288 286 285 285 284 283 283 283 283 283 284 285 286 287 287 288 288 287 287 288
324 323 323 324 324 323 323 323 323 323 322 322 321 321 321 320 319 316 315 313 311 311 310 309 307 306 305 305 304 303 302 301 301 300 299 298 297 297 297 296 296 296 296 295 295 295 295 295 295 295 295 295 295 295 295 295 295 294 293 293 293 292 291 291 291 290 290 290 291 291 290 290 290 289 288 288 288 288 288 289 290 290 289 289 288 287 285 284 283 283 282 281 282 281 281 282 283 284 286 286 286 286 286
323 323 323 324 323 323 323 323 323 321 320 319 319 318 318 317 316 314 313 312 311 310 309 308 306 306 305 304 303 302 301 301 300 299 298 297 297 296 296 296 295 295 295 295 294 294 294 295 295 294 294 294 293 294 294 294 294 293 293 292 292 292 291 290 290 289 289 289 289 290 290 290 290 290 288 286 286 286 286 287 288 289 289 288 288 288 286 284 283 281 280 280 280 280 279 279 280 282 283 284 285 285 285
323 323 323 323 323 323 322 321 319 318 317 315 316 315 315 314 313 312 312 311 310 309 308 307 306 306 305 304 303 302 301 300 300 299 298 298 297 297 296 295 295 295 294 294 294 294 294 294 294 293 293 293 293 293 293 293 293 292 292 292 291 291 291 290 290 289 289 289 288 288 288 288 288 289 288 287 286 285 285 286 286 288 289 288 288 288 287 285 283 282 282 281 280 279 279 279 280 282 283 283 282 283 284
323 323 323 322 322 321 320 318 316 314 314 314 314 314 314 313 312 311 311 310 309 308 307 306 305 304 304 303 301 301 300 300 300 300 299 298 297 297 296 295 294 294 294 294 294 293 293 293 293 293 292 292 292 292 292 292 292 292 291 291 291 291 291 291 290 290 289 288 287 287 287 287 287 288 287 286 286 285 285 285 285 287 288 288 288 288 288 287 285 283 282 280 280 279 279 280 281 282 282 281 281 283 283
321 321 321 320 320 318 316 314 313 313 313 313 314 314 313 312 311 310 310 308 307 306 305 305 303 303 302 301 301 300 300 299 299 299 298 297 297 296 295 294 294 294 294 293 293 293 293 293 292 292 292 292 291 291 291 291 291 291 291 291 291 291 291 290 290 290 289 288 287 287 287 287 286 288 287 286 285 285 285 284 284 285 287 288 288 287 287 287 286 284 282 281 280 279 279 281 282 282 281 280 281 283 283
319 319 318 318 317 315 314 313 312 312 312 312 313 313 312 311 311 310 309 307 307 305 305 304 303 302 302 301 301 301 300 300 299 299 298 298 297 296 295 295 294 294 293 293 293 293 293 292 292 292 292 291 291 291 291 291 291 291 291 291 291 291 291 290 290 290 289 289 288 287 287 287 286 287 287 287 286 285 285 285 284 284 284 285 287 286 285 285 284 284 284 284 283 282 281 281 282 281 280 279 281 282 283
317 317 316 316 315 314 313 312 311 311 311 312 312 312 311 311 310 309 308 307 307 306 306 305 304 303 303 302 302 301 301 300 300 299 299 298 297 296 296 295 293 293 293 293 293 292 292 292 292 291 291 291 291 291 290 290 290 290 290 290 291 291 291 290 290 289 288 288 288 287 287 287 286 286 287 287 288 286 285 285 284 282 282 283 283 284 285 285 284 283 283 284 285 283 282 281 280 280 280 280 280 280 280
315 315 315 314 314 313 312 312 312 311 311 310 310 311 310 309 309 308 307 307 306 306 306 305 305 304 303 302 301 300 301 301 300 300 299 298 296 296 295 295 294 293 292 292 292 292 292 292 292 291 291 291 290 290 290 290 290 290 290 290 290 291 291 290 289 288 288 288 288 287 288 288 286 286 286 286 288 286 285 285 284 283 282 282 282 284 285 285 286 285 283 283 284 283 282 280 280 279 279 280 279 279 279
314 313 313 313 312 312 312 312 311 310 310 310 309 310 310 310 309 308 307 306 306 307 307 306 306 305 303 302 301 301 301 301 300 299 298 297 296 296 295 295 294 292 292 292 292 292 291 291 292 291 291 291 291 290 290 290 290 290 290 290 290 291 291 290 289 288 288 287 288 287 287 286 285 285 285 286 287 286 285 285 285 283 282 282 282 283 284 284 286 285 284 283 284 283 282 281 280 280 279 279 279 279 279
313 312 312 311 311 311 311 311 310 309 310 309 308 308 309 309 309 307 308 307 307 307 306 305 304 304 303 303 302 302 301 300 299 299 298 296 296 295 295 294 293 293 292 291 291 291 291 291 291 291 291 292 292 290 289 289 289 290 289 289 290 291 291 289 288 287 286 286 285 286 285 285 285 285 285 286 286 287 287 286 285 284 283 282 282 283 283 283 284 284 283 282 282 282 282 281 280 280 280 280 280 279 279
312 311 311 310 310 310 310 309 309 308 308 308 307 307 307 308 308 308 307 307 307 304 304 303 304 304 304 303 302 301 300 299 299 298 297 296 294 295 294 294 293 293 292 291 291 291 291 290 291 291 291 292 292 291 290 289 289 289 289 289 290 291 290 288 287 286 286 285 285 285 284 284 284 284 284 284 285 286 287 288 286 285 284 283 282 283 283 283 283 283 282 282 281 281 281 281 280 280 280 280 280 279 278
311 311 310 310 309 309 308 308 307 307 307 306 305 305 305 306 307 306 305 304 303 302 301 302 303 303 303 302 301 300 299 298 298 297 296 295 294 294 294 294 293 293 292 292 291 290 290 290 290 290 291 291 291 291 290 289 289 288 288 289 292 291 289 287 286 286 286 285 285 285 285 284 284 284 284 284 284 285 286 286 285 285 284 284 283 283 283 283 283 283 283 282 282 281 281 280 280 280 280 280 280 279 278
310 310 309 308 308 307 306 305 305 304 304 304 304 303 303 303 304 304 303 302 301 301 301 301 301 301 301 301 300 299 298 297 298 297 296 295 294 294 294 294 293 293 292 291 291 291 290 289 289 289 289 289 289 289 289 289 288 288 289 290 293 291 288 286 286 286 286 286 286 285 285 285 284 284 284 284 284 284 285 285 284 284 283 283 283 283 282 282 283 283 283 283 282 281 280 280 279 279 279 280 280 279 278
309 308 307 307 305 305 304 303 303 303 303 303 302 301 301 301 302 302 301 300 300 300 300 300 300 299 299 299 298 297 296 296 296 296 296 295 294 294 294 293 293 292 292 291 291 291 290 289 288 288 288 288 288 288 288 287 287 287 288 289 290 289 287 286 286 286 286 286 286 286 286 285 285 284 284 284 283 283 284 284 283 283 282 282 282 282 282 281 282 283 283 283 283 282 282 281 280 280 280 280 280 280 279
307 307 306 305 304 303 303 303 302 301 301 301 300 299 299 299 299 299 299 299 299 299 298 298 298 298 298 297 297 296 295 294 294 294 294 294 294 293 293 293 292 292 291 291 291 291 290 290 288 288 288 288 288 288 287 287 287 287 287 287 287 287 287 287 286 286 285 285 285 286 286 286 285 285 284 284 283 283 283 283 284 284 283 282 281 282 282 282 282 283 283 283 283 283 283 282 282 282 281 281 281 281 281
306 305 305 304 303 302 302 302 301 300 300 300 299 298 298 298 298 297 297 297 297 296 296 295 296 296 296 296 296 295 294 294 294 294 294 293 293 293 293 292 291 291 291 290 290 290 290 289 288 287 287 288 288 287 287 287 287 287 287 287 286 286 286 286 285 285 285 284 285 285 286 285 284 284 284 283 283 283 283 283 284 284 283 282 281 282 282 283 282 283 283 284 283 283 283 283 283 283 283 283 283 282 282
305 304 304 303 302 301 301 300 300 300 299 299 298 297 297 297 296 296 296 296 295 294 294 293 294 294 294 295 295 294 293 293 294 294 293 293 292 292 291 291 291 290 290 289 289 289 288 288 287 287 287 287 288 287 287 287 287 287 287 287 286 286 285 285 285 284 284 284 284 285 285 285 284 283 283 283 283 283 283 283 283 283 282 281 281 281 282 282 283 283 283 283 284 283 283 283 283 284 284 283 283 283 283
304 304 303 303 301 300 300 299 299 299 298 298 297 297 297 296 296 296 296 295 295 295 294 293 294 294 294 294 295 294 293 293 293 293 293 293 292 291 291 291 290 290 289 289 288 288 288 288 287 287 287 287 288 287 287 286 286 286 286 286 286 285 285 285 284 284 284 284 284 285 285 284 283 283 283 282 283 283 283 282 282 282 281 281 281 281 281 281 283 283 282 282 283 283 283 283 284 284 284 283 283 283 283
304 303 302 301 301 300 299 299 299 298 298 297 297 296 296 296 295 295 295 296 295 295 294 295 294 293 293 294 294 294 294 293 292 292 292 292 292 291 291 291 290 290 289 288 288 287 287 287 287 287 287 287 286 286 286 285 285 285 285 285 285 285 284 284 284 284 283 283 283 284 285 284 283 283 283 283 284 283 283 282 282 281 281 280 280 280 280 281 281 282 282 281 281 282 282 283 283 283 284 283 283 283 282
Wind_Speed
10 10 10 10 9 9 9 9 9 9 10 12 14 14 15 15 14 14 14 13 13 13 13 13 13 12 12 12 11 11 11 11 11 11 10 10 10 10 10 10 10 10 10 10 10 10 10 10 10 10 10 10 10 10 9 9 9 8 8 8 7 7 6 5 5 4 4 4 4 4 4 4 4 4 4 5 5 5 5 5 5 5 6 6 6 6 7 7 7 8 8 8 8 8 8 7 6 4 2 1 1 1 2
10 10 9 9 8 8 8 8 8 6 7 8 10 12 13 14 14 13 13 13 12 12 12 12 12 12 11 11 11 11 11 10 10 10 10 10 9 9 9 9 9 10 10 10 10 10 10 9 9 9 9 10 10 9 9 9 9 8 8 7 7 6 5 5 5 5 5 5 5 5 5 5 5 5 5 5 5 6 6 6 6 6 7 7 7 8 8 8 8 9 9 9 8 8 8 8 6 3 3 2 2 2 3
10 10 9 9 8 8 8 7 6 6 5 6 7 9 11 12 12 12 12 12 12 12 12 12 12 11 11 11 11 10 10 10 10 9 9 9 9 9 9 9 9 9 9 9 9 9 9 9 9 9 9 9 8 8 8 8 8 8 7 7 6 6 5 5 5 5 5 5 5 5 5 5 5 5 5 6 6 6 6 7 7 7 8 8 8 9 9 9 9 9 9 9 9 8 8 7 5 2 2 2 2 3 3
10 9 9 8 8 8 7 7 6 6 6 6 6 7 8 9 11 11 11 11 11 11 11 11 11 11 11 10 10 10 10 10 9 9 9 8 8 8 9 8 7 7 7 7 8 8 8 8 8 9 9 8 7 6 7 8 7 7 6 6 5 5 5 5 5 5 5 5 5 5 5 6 6 6 5 5 5 6 6 6 6 7 8 8 9 9 9 9 9 10 9 9 9 8 6 4 3 3 1 1 2 2 2
9 9 8 8 7 7 7 6 6 7 6 6 6 6 6 7 9 9 10 10 11 11 11 11 10 10 10 10 10 10 10 9 9 8 8 8 8 8 8 7 5 5 5 5 6 6 6 6 7 8 7 6 5 6 7 7 6 6 5 5 4 4 4 4 5 5 5 5 5 5 6 6 6 5 5 5 5 5 5 5 5 6 7 8 8 9 10 10 10 10 9 9 8 6 4 3 3 3 3 2 1 1 2
8 8 8 8 7 6 6 6 6 7 6 6 5 5 5 6 7 7 7 8 9 10 10 9 9 9 9 9 9 9 8 8 7 7 7 7 7 7 6 5 4 4 3 3 3 3 4 5 5 5 5 5 5 5 5 5 4 3 3 3 3 3 4 4 5 5 6 6 6 6 6 6 6 5 5 5 5 5 5 5 4 5 6 7 8 9 10 10 10 10 9 8 6 4 3 3 3 3 3 2 1 1 2
8 8 8 7 6 6 6 6 6 6 6 5 4 4 4 5 5 4 4 5 6 6 7 7 8 8 8 8 7 6 6 5 5 5 5 6 6 6 4 3 4 3 3 3 2 2 3 3 3 3 3 2 2 3 2 2 2 2 3 3 4 4 5 5 6 6 6 7 7 6 6 6 6 5 5 5 5 5 5 4 3 4 5 6 8 9 9 10 10 9 8 6 3 3 3 4 4 2 2 2 1 1 3
9 9 9 8 7 7 7 7 7 6 5 5 4 4 4 4 3 3 3 3 4 4 5 5 5 6 6 6 5 5 4 4 3 4 4 5 4 4 4 3 3 3 3 2 2 2 1 1 1 1 1 0 1 1 2 3 3 4 4 5 5 5 6 6 7 7 7 7 7 7 6 6 6 6 5 5 5 5 5 4 2 3 3 4 6 7 8 8 7 6 5 3 1 2 4 4 4 2 1 1 1 1 3
9 10 10 9 8 8 8 7 7 6 5 5 4 4 4 3 3 2 2 3 3 3 3 4 4 5 5 4 4 4 4 4 3 3 4 4 4 4 3 3 3 2 2 1 1 1 1 1 1 2 2 1 1 2 3 4 4 5 5 5 6 6 7 7 7 8 8 7 7 6 6 6 6 5 5 5 5 5 4 3 2 2 3 3 4 5 5 5 4 3 1 1 1 2 3 4 4 3 3 2 1 1 3
10 10 10 10 10 9 8 8 7 6 5 5 4 4 3 3 3 2 2 2 2 2 2 3 3 3 4 4 4 4 4 4 4 4 4 4 4 3 3 3 2 1 1 1 1 1 1 2 3 3 2 2 2 2 3 3 4 4 5 5 6 7 7 7 8 7 7 6 4 4 4 4 5 5 5 4 4 3 3 2 2 2 2 3 3 3 4 4 3 2 1 1 1 1 2 3 4 4 3 2 2 1 2
11 12 11 11 10 10 9 8 7 6 5 5 4 4 4 3 3 3 3 2 2 2 2 2 3 3 3 3 4 4 4 4 4 4 3 3 3 2 2 2 1 0 0 0 1 1 2 2 3 2 2 1 1 1 2 2 3 3 4 4 5 6 6 5 5 5 4 4 3 3 3 4 5 5 5 4 4 3 3 3 3 3 2 2 2 3 3 4 3 2 1 1 1 1 2 2 3 3 2 1 2 1 1
12 12 12 11 11 10 9 8 7 6 6 5 5 4 4 4 3 3 3 3 2 2 2 2 2 2 2 2 3 3 3 2 2 2 2 2 2 1 1 1 1 1 1 1 1 2 2 2 2 2 2 1 1 1 1 1 1 2 2 3 4 4 4 2 3 3 3 4 5 4 4 5 6 6 5 4 4 4 4 4 3 3 3 3 3 3 3 3 3 3 2 2 2 2 2 2 1 1 1 2 2 2 2
12 12 12 12 11 10 9 8 7 7 6 6 5 4 4 4 3 3 3 3 3 2 2 2 2 2 2 2 3 3 2 2 2 1 1 1 1 1 1 2 2 2 2 2 2 2 2 2 2 2 1 1 1 1 1 1 1 1 1 1 2 2 1 1 2 2 3 4 4 4 5 5 6 6 5 4 4 4 5 4 4 4 3 3 3 3 3 3 3 3 3 3 2 2 2 1 1 2 3 4 4 3 3
12 12 12 12 11 10 9 8 8 7 6 6 5 5 4 4 4 4 3 3 3 3 2 2 2 3 3 3 3 3 3 3 3 2 2 1 1 2 2 3 3 3 3 3 3 2 2 2 2 2 1 1 1 1 1 1 0 0 0 1 2 2 2 2 3 3 4 4 4 4 5 5 6 6 5 5 5 5 5 5 5 5 4 3 3 3 3 3 3 2 2 2 2 2 2 2 2 3 4 4 4 4 4
12 12 11 11 11 10 10 9 8 7 6 6 5 5 4 4 4 4 3 3 3 3 3 3 3 4 4 5 5 5 5 5 4 4 4 4 4 4 4 4 4 4 4 3 3 3 3 3 3 2 2 2 2 2 1 1 1 1 2 2 3 3 3 3 4 4 4 5 5 5 5 5 5 6 5 5 5 6 6 6 6 6 5 4 3 3 4 4 4 3 3 2 2 2 2 3 3 3 4 4 4 4 4
12 11 11 11 11 11 10 9 8 7 6 5 5 5 4 4 4 4 4 3 4 4 4 4 4 5 5 5 5 5 5 5 6 7 7 6 6 6 6 5 5 5 5 5 5 5 4 4 4 4 3 4 3 3 2 2 2 2 3 3 3 3 4 4 5 5 5 5 5 5 5 5 5 5 5 6 6 7 8 8 8 7 7 6 5 4 5 6 6 6 5 4 4 4 4 4 4 4 4 4 3 3 3
11 10 10 11 11 11 10 9 8 7 6 6 5 5 5 4 4 4 4 4 4 4 4 5 5 5 5 5 5 5 5 6 7 8 8 7 6 6 6 6 6 5 5 5 5 4 4 4 3 3 4 3 3 2 2 2 2 3 3 4 4 4 4 4 5 5 5 5 5 5 5 5 5 6 6 7 6 7 7 8 8 7 7 7 7 6 6 7 8 8 7 7 6 5 4 4 4 4 4 4 3 2 2
11 10 11 11 12 11 10 9 7 6 6 6 6 5 5 5 5 5 4 4 4 5 5 5 6 6 5 5 5 5 6 6 7 7 7 8 7 6 6 6 6 5 5 5 4 4 4 3 3 3 3 3 3 3 3 3 3 4 4 4 4 4 5 5 5 5 5 5 5 5 5 5 6 6 6 6 6 6 6 7 7 7 7 7 7 6 6 7 8 8 8 7 7 6 5 5 5 5 4 4 3 3 2
11 11 11 12 12 11 10 9 8 7 7 7 6 5 5 5 5 5 4 5 5 5 5 5 6 6 5 5 6 6 6 6 6 7 8 8 8 7 7 6 5 5 5 4 4 4 3 3 3 3 3 3 3 4 4 4 5 5 5 5 5 5 5 6 5 5 5 5 6 5 5 5 6 6 6 6 6 6 6 6 7 6 7 7 7 6 6 7 7 8 8 7 7 6 6 6 6 6 6 6 5 5 4
11 12 12 12 12 11 10 9 8 8 7 7 6 5 5 5 5 5 5 5 5 5 5 6 6 6 6 6 6 6 6 6 6 6 7 7 8 7 6 5 5 5 4 4 4 4 3 3 3 4 4 4 4 4 5 5 5 5 5 5 5 5 5 6 5 5 5 5 5 6 6 6 6 6 6 6 6 6 6 6 6 6 6 7 8 7 7 7 7 7 7 7 7 6 6 5 6 7 7 7 6 6 6
12 12 12 12 12 11 10 9 8 8 7 6 6 5 5 5 6 6 6 5 5 5 6 6 6 6 5 5 6 6 5 5 5 5 6 6 6 7 7 6 5 4 4 4 4 3 3 3 4 4 4 4 4 5 5 5 5 5 5 5 5 5 5 5 5 5 5 5 5 5 6 6 6 6 6 6 6 6 5 5 5 5 5 6 7 7 7 8 8 8 8 8 7 6 5 5 5 6 6 6 6 6 6
12 12 12 12 12 11 10 9 8 8 7 6 6 6 6 6 7 6 6 6 6 6 6 6 6 5 5 5 5 5 5 5 5 5 5 5 6 7 7 6 5 4 4 4 4 3 3 4 4 4 4 4 4 5 5 5 4 5 5 5 4 4 4 4 4 4 4 4 5 5 5 5 5 5 5 5 5 5 5 4 4 5 5 6 6 6 7 8 8 9 8 8 7 6 6 5 5 5 6 7 6 7 7
13 12 12 12 12 11 10 10 9 8 7 7 7 7 7 8 8 7 7 6 6 6 6 5 5 4 5 5 5 5 5 5 5 5 5 5 7 7 6 5 5 4 4 4 4 4 4 4 4 4 4 5 5 5 5 4 4 5 5 4 4 4 4 5 5 4 4 4 4 4 5 5 4 5 4 4 5 5 5 5 5 5 5 5 6 6 7 8 8 9 8 8 7 7 7 7 6 6 7 7 7 7 7
13 13 12 12 12 11 10 10 9 9 8 8 9 9 9 9 8 8 7 7 7 6 5 5 4 5 5 5 4 5 5 5 5 5 6 7 8 7 6 5 6 5 4 4 4 5 5 5 5 5 5 5 5 5 5 5 5 5 5 4 4 4 5 5 5 5 5 5 5 5 5 5 6 5 5 5 5 5 5 6 6 6 6 6 6 7 7 7 7 8 8 7 7 8 8 7 7 7 7 7 7 8 8
13 13 12 12 12 11 11 10 10 9 9 9 9 9 9 8 8 8 7 7 6 6 5 5 5 5 5 5 5 5 5 5 5 5 6 7 8 7 7 6 7 6 5 4 5 5 5 5 6 5 5 5 5 5 5 5 5 5 5 5 5 5 5 5 6 6 6 5 6 6 6 7 7 7 7 6 6 6 6 7 7 7 6 6 6 7 7 7 7 7 7 7 7 8 7 7 7 7 7 7 8 8 9
13 13 12 11 12 11 11 10 10 10 9 9 9 8 8 8 8 7 7 7 6 5 5 5 5 5 5 5 5 5 5 5 5 5 5 6 7 7 7 7 6 5 5 4 4 5 5 6 6 5 5 5 5 5 5 5 5 5 5 5 5 5 5 5 6 6 6 6 6 6 7 7 7 7 7 7 6 6 6 7 7 7 7 6 7 7 6 6 7 7 7 6 6 6 6 6 6 7 7 7 8 9 9
11 11 11 10 10 11 11 10 10 10 9 9 8 8 8 8 8 7 7 6 5 5 5 5 5 5 5 5 5 4 4 4 4 4 4 5 6 7 7 7 6 6 5 5 4 4 5 5 5 5 5 5 5 5 5 5 5 5 5 5 5 5 5 6 6 6 6 5 6 6 7 7 6 6 6 6 6 6 6 7 7 7 6 6 6 6 6 6 6 6 6 5 5 5 5 5 6 7 7 8 8 8 8
11 11 10 9 9 10 11 11 11 10 10 9 9 8 8 8 7 7 6 6 5 5 5 5 5 4 5 5 4 4 4 4 4 4 4 5 5 6 6 6 6 5 5 5 4 4 5 5 5 5 5 5 5 5 5 5 5 4 5 5 5 5 6 6 6 6 5 5 6 6 6 6 5 5 5 6 6 6 6 6 7 6 6 6 6 6 6 6 6 5 5 5 5 5 5 5 6 7 7 8 8 8 8
11 11 10 10 10 12 12 12 12 11 11 10 10 9 8 8 7 7 6 6 5 5 5 5 5 4 4 4 4 4 4 4 4 4 4 5 5 6 6 6 5 5 5 5 5 5 5 5 5 5 5 5 5 5 5 5 4 4 5 6 5 6 6 6 6 6 6 6 6 6 6 6 6 5 5 5 6 6 6 6 7 7 6 6 6 6 6 6 6 6 5 5 5 6 6 6 6 7 7 8 8 8 8
11 12 12 13 12 13 13 13 12 12 11 11 10 9 9 8 7 7 6 6 6 5 5 5 5 5 5 5 4 5 5 5 5 5 5 5 5 5 6 5 5 5 5 6 7 7 6 6 6 6 5 5 5 5 5 5 5 5 6 6 6 6 6 6 6 6 6 6 6 6 6 7 7 6 6 6 6 6 6 6 7 7 7 6 6 6 6 6 6 6 6 5 6 6 6 6 6 6 7 7 7 7 7
13 14 14 15 14 15 14 14 12 12 11 10 10 9 8 8 7 7 6 6 6 5 5 5 5 5 5 5 5 5 5 5 5 5 5 5 5 5 6 5 5 5 6 7 7 8 7 7 6 6 6 6 6 6 6 6 6 7 7 7 6 7 7 7 7 7 7 7 6 6 6 7 7 7 6 6 6 6 6 6 6 6 6 7 7 7 6 6 6 5 5 5 6 6 6 5 5 6 6 7 6 6 6
14 15 15 16 15 15 14 14 13 12 11 11 10 9 8 8 8 7 7 7 6 6 6 5 5 5 5 5 5 5 5 6 6 5 5 5 5 5 6 6 6 7 7 8 8 8 8 8 7 7 6 6 6 6 6 6 7 8 8 7 7 7 7 7 7 7 7 6 6 6 6 6 7 7 6 6 5 6 6 6 6 6 6 6 7 6 6 5 5 5 5 5 5 5 5 5 5 5 6 6 6 6 6
15 14 15 15 15 14 13 12 12 12 11 11 10 10 9 9 9 8 8 7 7 6 6 6 6 6 5 5 5 5 6 6 6 5 5 5 6 6 7 8 7 8 8 8 8 9 8 8 7 7 7 7 7 7 6 7 7 8 8 7 7 7 7 7 7 6 6 6 6 6 6 6 6 6 6 6 5 6 6 6 6 6 6 6 6 6 5 5 5 5 5 5 5 5 4 4 4 5 5 6 6 6 7
14 13 14 14 14 13 12 11 10 10 10 10 10 9 9 8 8 8 8 7 7 7 7 7 7 6 6 5 5 5 6 6 5 5 5 6 6 7 8 9 8 8 8 8 8 9 9 8 7 7 7 7 7 7 7 7 7 7 7 7 7 7 7 7 7 6 6 6 6 6 6 6 6 6 6 6 6 6 6 6 6 6 6 5 5 5 5 5 5 5 5 5 4 4 4 4 4 5 6 7 7 6 7
14 13 14 14 14 12 11 10 9 9 9 9 9 9 8 8 8 8 7 7 7 7 7 7 7 6 6 5 5 5 5 5 5 5 6 6 7 8 9 9 7 8 8 9 8 9 9 8 7 7 7 7 7 7 7 7 8 7 7 6 6 7 7 7 7 6 6 6 6 5 5 5 5 5 5 6 5 5 5 5 5 5 5 5 5 4 4 4 5 4 4 4 4 4 4 4 4 5 6 6 6 6 6
14 14 13 13 13 12 11 10 9 9 9 9 9 8 8 8 8 7 7 7 7 7 7 7 6 6 6 5 5 5 5 5 5 5 6 7 8 9 9 8 7 8 9 9 10 10 9 8 7 7 7 7 7 7 8 8 7 7 7 6 6 7 7 7 7 6 6 6 6 5 5 5 5 5 5 5 6 6 6 5 6 5 5 5 4 4 4 4 5 4 4 4 4 4 4 4 5 6 6 6 6 5 5
15 14 12 12 11 11 10 10 9 8 8 8 8 7 7 7 7 7 7 7 7 7 6 6 6 6 6 5 5 5 5 5 5 6 7 8 9 9 9 8 7 8 8 9 10 10 10 9 8 7 7 7 7 7 7 8 7 7 7 6 6 7 7 7 7 6 6 6 6 6 5 5 5 5 5 5 5 7 6 6 6 6 5 5 4 4 4 4 5 4 4 4 3 3 4 4 6 6 6 6 6 6 6
15 14 13 12 11 11 10 10 9 9 8 7 7 7 7 7 7 6 6 6 6 6 6 5 5 5 5 5 5 5 5 5 6 6 7 9 9 9 9 9 8 8 9 9 9 9 9 9 8 7 7 7 6 7 7 8 8 7 7 6 7 7 7 7 6 5 5 6 6 5 5 4 5 5 6 5 5 6 6 6 6 6 6 5 4 4 3 3 4 4 4 3 3 4 4 4 7 6 7 7 7 7 7
15 15 14 13 11 11 10 10 9 9 7 6 6 7 7 7 7 6 5 6 6 6 6 5 5 5 5 5 5 5 5 5 6 7 8 9 10 9 9 8 8 9 10 9 9 9 8 8 7 7 7 6 6 7 7 7 7 7 7 7 7 7 6 6 5 6 6 7 7 6 4 3 3 5 6 7 6 6 6 6 6 7 6 5 4 4 4 4 3 3 3 3 3 4 3 4 7 7 8 8 8 7 7
15 15 15 13 12 11 10 10 9 9 8 6 6 6 6 6 6 6 6 6 6 5 5 5 5 5 5 6 6 5 5 5 6 7 9 10 10 9 8 8 9 10 10 9 8 8 8 7 7 7 6 6 6 6 7 7 7 7 6 6 6 6 5 5 6 7 8 8 9 8 6 4 3 4 5 6 6 6 6 6 6 7 6 5 4 5 5 5 4 3 3 2 3 3 3 3 6 8 10 10 9 8 7
14 15 14 13 12 11 10 9 9 9 8 8 6 6 5 5 6 6 6 6 6 6 5 4 4 4 5 5 5 5 5 5 6 7 8 9 9 8 8 9 10 10 9 9 8 8 8 8 8 7 7 6 6 6 7 7 7 7 6 6 6 6 6 7 8 9 9 8 8 8 7 5 4 3 3 4 5 5 5 5 6 6 6 6 4 5 4 4 3 3 3 2 2 3 3 3 5 8 10 10 8 7 7
14 14 14 13 12 11 10 9 8 8 8 8 7 6 6 5 5 5 5 5 5 6 5 4 4 4 5 5 6 5 5 5 6 7 7 7 8 8 8 9 9 9 9 9 9 9 9 8 8 7 7 7 7 7 7 6 6 7 6 6 6 6 6 6 7 8 7 6 6 6 6 6 5 3 3 3 3 4 4 5 6 6 6 6 5 5 4 3 1 2 3 4 4 3 3 3 4 6 7 7 6 6 6
13 14 13 13 12 11 10 9 8 8 8 8 7 7 6 6 6 6 6 6 6 6 6 5 5 5 5 5 5 5 6 6 7 7 7 7 8 8 8 9 9 9 9 8 9 10 9 9 8 8 8 8 7 7 6 6 6 6 6 6 6 5 5 6 6 6 6 5 5 5 5 5 5 4 3 3 3 3 4 5 6 6 6 6 5 4 4 3 3 3 3 4 4 4 4 3 4 5 5 4 3 4 5
13 13 13 13 12 11 10 9 8 7 8 8 8 8 9 9 9 9 8 7 7 6 6 6 6 6 6 6 6 6 6 6 6 7 6 6 6 7 8 8 9 10 9 9 9 10 10 9 8 9 9 9 8 7 6 6 6 6 6 6 5 5 5 5 5 6 6 5 5 5 5 5 5 5 4 4 3 4 4 5 5 6 6 5 5 5 5 5 4 3 2 2 1 2 3 5 5 6 5 4 2 3 4
13 13 13 13 12 11 10 9 8 8 9 10 10 10 11 11 11 9 8 8 7 7 7 7 7 7 6 5 5 5 5 5 5 6 5 5 5 6 7 8 9 10 10 9 9 10 10 10 9 9 9 9 8 7 6 6 6 6 6 5 5 5 5 5 5 6 5 5 5 5 4 4 5 5 4 4 4 4 4 4 4 5 5 5 6 6 6 5 3 3 3 3 2 2 3 3 5 6 5 4 3 3 4
13 13 12 12 12 11 10 10 10 10 11 12 12 11 10 9 8 7 7 7 7 6 6 6 5 4 4 4 4 4 4 4 4 5 5 5 5 5 5 7 9 10 10 10 9 10 10 10 10 9 9 9 8 8 8 7 7 6 6 6 5 5 5 5 5 4 4 4 4 5 5 5 5 5 5 4 3 3 4 4 4 5 5 5 5 6 6 5 4 3 3 4 4 4 3 3 3 5 5 3 2 3 3
13 12 12 12 12 11 11 10 10 12 12 12 12 10 9 9 8 7 6 6 5 5 4 4 4 3 3 3 3 3 3 3 3 4 4 4 4 4 5 7 9 10 10 10 9 10 10 10 9 9 9 9 9 9 9 8 7 7 6 5 5 5 4 4 4 4 4 4 5 5 5 4 4 4 4 5 4 3 3 4 4 4 5 5 5 5 6 6 5 4 3 2 2 1 2 3 3 4 4 4 3 2 2
13 13 13 13 12 11 11 10 11 11 12 12 12 9 8 8 8 8 7 6 6 6 5 5 5 4 3 3 3 4 4 4 4 4 4 4 4 4 5 6 8 10 10 10 9 9 9 9 9 9 8 8 9 9 9 9 8 6 6 5 5 5 4 4 4 4 4 4 4 4 4 3 3 4 4 4 3 3 3 4 5 4 4 4 4 4 5 5 5 4 3 3 3 2 1 2 3 3 3 3 5 4 2
12 12 13 13 13 12 11 11 11 11 11 11 11 9 8 7 7 8 8 7 7 7 7 6 6 4 3 3 3 4 4 4 5 4 4 4 4 4 4 5 6 8 9 9 8 9 9 9 10 9 9 9 9 9 9 8 8 7 6 5 4 5 5 4 5 4 4 4 3 3 3 3 4 3 3 3 3 3 3 4 5 4 4 3 3 3 4 4 4 4 3 3 2 1 1 0 1 2 3 3 5 6 6
12 12 13 12 12 12 11 10 10 10 11 10 10 9 8 7 7 7 8 7 7 7 7 6 6 5 4 4 4 4 4 4 5 5 5 5 5 5 4 4 4 6 8 8 8 8 9 9 10 9 9 9 8 8 8 8 7 7 6 5 4 5 5 5 4 4 4 4 3 3 3 3 3 3 2 2 2 3 3 4 4 4 3 3 3 3 3 3 4 4 3 3 3 2 1 0 2 1 1 2 3 4 6
13 13 12 12 11 12 11 11 10 10 10 9 9 9 8 8 7 7 8 7 7 6 6 5 5 5 5 5 5 5 4 4 5 6 6 5 5 5 4 4 4 5 6 7 7 8 8 9 9 9 9 9 8 7 7 7 7 6 6 5 5 5 5 4 4 4 4 4 4 4 4 4 3 3 2 2 2 2 3 3 3 3 3 3 3 3 2 3 4 4 3 2 2 2 2 1 1 1 1 1 2 3 4
13 12 12 11 11 11 11 10 9 10 9 9 7 8 8 8 8 8 8 7 6 6 5 4 5 5 6 6 5 5 5 5 5 6 6 6 5 5 5 4 4 4 5 6 7 8 8 8 8 9 9 9 8 8 8 8 7 6 6 5 5 5 4 4 4 4 4 5 5 4 4 4 3 3 3 3 3 3 3 3 3 3 3 3 3 3 2 2 3 3 3 2 2 2 2 2 1 1 1 1 1 2 3
12 11 11 11 10 10 10 9 8 9 9 8 7 7 7 8 9 8 7 6 6 5 5 4 4 5 6 5 5 5 5 5 5 5 6 6 5 5 5 5 4 4 4 5 6 7 8 8 8 9 9 9 8 8 8 8 8 7 6 5 5 5 5 4 5 5 5 5 5 5 4 4 3 3 3 4 4 3 4 4 4 3 3 3 2 3 3 2 3 2 2 2 2 2 2 2 2 2 2 2 2 1 1
11 11 11 10 10 9 8 8 8 8 8 8 7 7 8 8 8 7 6 6 6 7 7 5 5 5 5 5 5 5 5 5 5 5 6 6 6 5 5 4 4 4 4 4 4 5 7 8 8 8 9 9 9 8 8 7 7 7 6 5 5 5 5 5 5 5 5 5 5 4 4 4 3 3 3 4 5 4 3 3 4 3 3 2 3 3 3 3 3 2 2 2 2 2 2 2 2 2 2 2 2 1 1
11 11 11 10 9 8 7 7 7 8 8 8 8 8 8 8 8 7 7 7 8 9 9 8 7 7 6 6 5 5 5 5 4 5 5 6 5 5 4 4 4 4 4 4 4 4 5 6 7 8 8 8 8 7 7 7 7 6 5 5 6 5 5 5 5 5 4 4 4 4 4 4 3 4 4 5 5 4 3 3 4 4 3 3 3 3 3 3 3 3 2 2 2 2 2 2 2 2 3 3 2 2 2
11 11 10 9 8 7 7 7 8 8 9 9 9 9 8 8 9 8 8 8 9 10 10 10 9 9 8 7 7 6 5 5 5 5 6 5 5 4 4 4 4 4 4 4 4 4 4 5 6 7 7 7 7 6 7 7 6 5 5 5 5 5 5 4 4 3 3 3 3 3 3 4 4 4 5 5 5 4 3 4 4 4 4 3 3 3 3 3 3 3 2 2 2 1 1 1 1 2 2 2 2 2 2
10 10 10 10 8 8 8 8 8 9 9 10 10 9 9 9 9 8 8 9 9 10 10 10 10 10 9 8 8 7 6 5 6 6 6 6 5 5 4 4 4 4 4 4 3 4 4 4 4 5 6 6 5 6 6 6 6 5 4 4 4 4 4 3 3 3 3 3 3 3 4 4 4 4 4 4 4 3 4 4 4 4 4 4 3 3 3 3 3 2 2 2 1 1 1 1 1 1 1 2 2 2 2
10 11 11 11 9 8 8 9 9 9 10 10 10 10 10 10 10 9 8 9 9 9 9 8 10 9 9 9 8 7 6 6 5 5 6 6 5 5 4 4 4 4 4 3 3 3 4 4 4 4 5 5 5 5 5 5 4 4 3 3 4 3 3 3 3 3 3 3 3 4 4 4 4 4 3 3 4 3 4 4 4 4 4 3 3 3 3 3 2 2 2 2 1 1 1 1 1 1 1 1 1 2 2
11 11 12 12 10 8 8 9 9 10 10 11 11 11 11 11 10 9 9 9 9 9 8 8 9 9 9 8 8 6 6 5 5 5 5 5 6 5 5 5 4 4 4 3 3 3 4 4 4 4 4 4 4 4 4 4 4 3 3 3 3 3 4 4 3 3 3 4 4 4 4 4 4 4 4 4 4 3 3 3 4 4 3 3 2 2 2 2 1 1 1 2 2 1 1 1 1 1 1 1 1 2 2
10 11 12 12 11 9 8 9 9 10 11 11 11 11 11 11 10 9 9 9 8 8 7 7 8 8 8 8 7 6 6 5 5 5 5 5 6 6 5 5 5 4 4 4 4 4 4 4 4 4 4 4 4 5 5 5 4 4 3 3 3 4 4 4 3 3 3 4 4 4 4 3 4 4 4 4 3 2 3 3 4 3 3 2 2 2 2 1 1 1 1 2 2 1 1 1 1 1 1 1 1 2 2
11 11 11 11 10 8 8 9 9 10 10 11 11 11 11 10 9 9 9 8 8 7 7 7 7 7 7 7 6 6 6 5 5 5 5 5 5 5 5 5 5 4 4 4 4 5 4 4 4 4 5 5 5 5 6 6 5 5 4 4 4 4 4 4 3 3 3 4 4 4 3 3 3 3 3 3 2 2 3 3 3 3 2 2 2 1 1 1 1 1 1 1 1 1 1 1 1 1 1 1 1 1 2
Wind_Direction
111 113 116 117 118 117 116 117 118 118 119 120 123 125 126 127 127 127 127 127 126 124 122 121 120 119 118 118 118 117 117 117 118 119 122 124 127 129 131 133 134 135 137 138 138 138 139 139 139 139 140 141 142 145 148 153 158 164 170 176 180 183 186 190 197 204 213 221 230 238 246 252 258 261 265 268 271 275 280 286 293 300 305 309 312 313 314 314 314 314 315 317 322 333 344 0 40 82 111 175 260 202 183
118 120 122 123 121 121 121 121 119 118 119 121 124 125 126 127 128 128 128 128 127 125 124 122 122 121 121 120 120 119 120 120 122 124 126 129 131 133 135 136 138 139 141 142 143 143 144 145 146 147 148 149 149 152 156 162 166 173 178 182 186 189 193 199 207 214 222 230 239 248 256 264 269 274 278 282 286 292 297 304 310 315 318 319 319 318 317 315 314 313 314 317 324 334 343 354 19 82 123 165 225 225 199
124 127 129 129 129 129 128 126 122 120 119 120 122 124 125 127 128 129 129 129 128 127 125 125 124 124 124 124 123 124 125 126 129 131 133 135 136 138 139 141 142 143 144 145 147 148 149 151 153 155 156 157 158 161 166 171 175 180 185 189 193 196 202 209 217 223 230 237 243 253 260 267 273 278 283 289 295 303 311 317 322 325 325 323 321 319 316 314 311 310 311 315 323 334 342 347 354 42 123 158 193 223 208
129 132 135 135 135 134 131 127 123 121 119 119 119 121 123 126 129 129 130 130 129 128 128 128 128 129 128 128 128 129 131 133 135 138 140 141 142 143 143 144 145 146 148 151 153 154 155 157 160 161 162 162 165 171 176 179 182 187 193 198 202 207 214 222 231 237 243 248 251 256 261 265 269 274 280 287 295 303 312 319 325 326 324 320 316 312 309 306 304 304 306 312 320 330 336 338 335 339 344 163 168 206 198
133 136 137 137 136 133 129 124 121 120 118 115 114 116 120 125 129 130 131 131 131 131 131 132 132 132 132 131 131 133 135 138 141 144 146 147 146 146 146 146 148 152 154 156 159 159 161 164 165 165 167 169 173 182 185 187 192 197 203 211 219 228 239 248 256 261 264 265 265 265 265 266 268 272 278 285 293 301 310 317 323 322 317 312 307 303 300 297 295 295 298 305 314 323 324 317 317 324 327 331 124 169 174
137 138 138 136 134 130 125 120 119 118 116 113 111 113 118 124 129 131 132 132 131 132 133 133 134 134 133 133 133 134 137 140 145 150 151 151 149 148 148 150 155 158 160 161 161 161 168 171 169 170 171 174 182 189 193 198 206 216 232 250 268 279 282 283 283 283 283 281 278 274 273 272 274 278 284 290 296 304 310 316 319 313 307 302 298 295 292 289 287 287 290 296 305 309 306 300 301 313 323 334 45 125 157
144 141 139 137 135 130 126 123 121 120 117 115 113 115 118 123 127 130 131 130 130 129 130 131 132 132 132 132 132 134 139 145 153 157 157 154 152 151 152 158 164 166 168 167 164 166 173 175 172 170 170 176 195 206 217 236 267 294 308 314 316 314 308 302 297 294 290 287 283 281 280 280 283 288 294 299 304 312 318 322 318 308 302 298 295 291 289 287 285 284 286 291 301 295 290 289 292 304 321 337 17 131 158
150 146 143 141 139 136 133 130 127 124 121 118 118 121 124 127 130 129 127 125 122 121 122 123 126 129 130 131 133 139 147 155 166 168 165 161 158 159 162 167 173 174 175 175 169 167 165 160 130 123 122 127 293 297 314 327 335 334 332 328 324 318 311 304 299 294 290 286 283 283 285 288 293 298 302 306 311 319 325 329 317 306 302 300 296 296 296 295 293 292 293 295 295 286 287 291 297 314 333 340 318 169 166
154 152 149 146 143 141 140 138 134 129 125 123 125 130 135 138 140 136 129 124 121 120 120 124 129 133 136 140 146 153 160 168 178 180 177 175 172 171 173 175 180 181 181 180 172 162 140 105 71 48 34 14 348 335 337 339 340 336 331 325 317 310 305 300 296 293 290 287 285 286 290 297 304 310 315 320 325 329 332 330 316 309 305 303 303 315 324 329 327 326 336 346 288 288 297 306 317 335 350 350 307 200 177
159 156 153 150 146 145 146 144 139 134 131 132 135 141 146 151 152 150 146 141 138 139 139 141 147 150 154 160 167 171 176 182 188 190 190 188 185 181 181 182 184 182 176 169 162 142 114 93 77 60 46 23 355 336 332 330 331 326 320 313 306 299 297 296 295 297 300 301 300 300 306 316 327 335 347 355 346 350 350 341 329 320 312 309 316 342 357 7 16 30 53 59 300 305 317 326 335 348 357 353 316 277 198
161 159 156 152 149 150 150 148 141 138 137 140 144 152 157 160 159 157 156 157 160 162 162 161 164 167 170 172 174 177 182 188 193 197 199 199 195 192 191 187 165 112 75 86 98 86 81 80 76 70 63 47 14 338 323 316 311 309 304 299 293 290 289 292 295 309 329 353 14 4 358 1 8 15 23 28 18 24 20 9 357 348 338 333 335 357 12 21 30 34 38 31 357 353 352 353 355 359 4 358 326 329 321
162 159 156 154 152 153 152 149 143 141 143 147 152 161 165 163 158 157 159 162 167 170 168 165 167 167 163 159 155 157 164 174 184 199 210 219 216 211 200 165 99 65 59 66 71 65 64 65 67 71 73 70 43 329 302 289 282 284 287 287 285 284 284 292 306 338 11 33 45 42 34 27 27 31 34 35 34 32 29 24 16 12 3 355 350 6 20 26 29 24 21 20 20 25 27 25 25 34 51 58 52 21 5
162 160 158 156 154 155 154 151 147 147 150 155 160 167 168 163 155 155 158 160 163 161 158 153 150 137 126 119 118 118 120 123 126 150 188 214 219 184 120 97 90 76 69 66 63 56 52 51 51 57 58 51 6 322 299 281 265 264 278 298 316 307 318 353 355 16 29 37 43 43 37 33 30 29 27 25 26 26 25 22 19 17 14 6 359 8 19 31 36 28 23 23 29 39 47 58 65 68 64 60 54 41 30
163 162 159 156 154 155 155 154 152 153 156 161 165 166 164 158 154 155 155 154 152 143 135 124 112 99 89 83 81 82 83 85 87 98 111 122 126 112 97 89 87 82 77 71 64 56 51 49 43 44 43 35 8 352 340 325 279 257 38 40 34 39 48 48 35 33 34 35 36 36 33 30 28 24 20 15 14 15 14 13 11 11 11 11 8 7 14 25 39 38 32 26 26 37 47 55 57 57 58 56 50 43 39
165 163 158 155 153 154 155 155 156 158 160 162 162 159 155 152 150 147 144 142 141 128 112 94 80 76 70 64 60 60 60 58 57 57 60 67 78 85 85 81 78 75 72 67 61 54 52 52 48 48 48 45 34 38 40 46 73 76 65 56 49 46 47 45 39 34 33 33 34 33 30 27 24 20 15 11 10 8 7 5 4 3 2 2 5 10 12 16 23 30 33 28 17 18 21 28 35 39 44 48 46 39 39
166 162 156 152 152 153 154 155 157 158 158 156 152 147 143 139 135 132 131 130 124 108 93 81 72 70 67 62 58 57 56 54 52 51 52 54 60 66 70 71 70 68 65 61 56 51 51 51 49 48 50 50 44 48 53 58 61 62 59 53 46 42 43 43 39 32 29 29 31 29 27 24 20 14 10 9 10 7 4 0 360 359 357 355 356 7 14 16 16 20 23 26 24 20 19 20 23 27 32 37 38 35 35
164 156 151 148 149 150 151 152 153 152 149 143 137 132 128 123 120 119 117 111 97 85 79 76 72 70 67 64 60 58 57 56 55 54 53 54 59 64 68 69 67 66 64 61 56 51 49 47 44 43 45 45 36 32 36 41 45 47 47 45 38 35 37 38 36 28 25 23 23 22 21 18 15 9 7 6 7 6 3 0 359 358 357 356 357 7 15 19 20 21 22 24 25 25 24 23 22 24 27 29 30 34 37
157 149 145 143 144 144 144 144 144 142 137 132 126 121 116 112 111 109 103 95 85 79 76 74 73 71 68 65 63 60 58 58 58 57 55 55 57 62 67 69 67 66 66 65 60 55 51 47 44 44 43 41 33 27 26 29 32 32 33 32 27 27 29 31 31 26 22 19 18 16 15 13 12 9 7 6 6 6 5 2 2 0 0 2 4 11 18 22 24 24 24 24 26 26 25 22 20 21 21 21 18 21 23
149 143 139 137 137 137 136 136 135 133 128 122 119 115 111 107 103 98 93 89 85 83 80 76 74 72 69 66 64 63 60 59 60 59 57 56 56 60 65 69 68 65 65 63 60 55 49 45 45 43 39 35 36 35 33 31 29 28 28 26 20 25 28 28 25 25 23 21 17 15 14 13 13 11 10 9 9 9 9 9 7 5 6 9 13 18 21 23 25 25 24 23 25 24 22 18 15 13 13 12 9 7 4
144 139 136 134 134 133 132 130 130 127 122 118 116 112 108 103 97 92 90 89 89 87 83 78 74 71 69 67 66 65 63 62 62 62 60 58 58 60 63 68 71 68 65 62 59 52 44 40 44 38 33 31 37 40 39 38 34 32 31 27 22 29 31 29 22 24 26 26 22 20 19 18 17 16 14 13 12 13 14 13 9 9 14 16 18 19 19 20 22 22 20 19 20 19 17 15 12 9 8 6 4 359 355
141 136 134 132 131 130 129 127 125 121 118 117 115 111 106 101 97 94 93 92 91 87 82 77 74 73 71 69 67 67 67 65 64 64 62 60 59 60 62 64 68 67 65 62 59 49 40 36 40 38 34 35 39 42 42 41 38 37 35 31 28 34 36 34 26 26 30 32 31 30 28 26 24 22 20 19 17 18 18 16 11 14 18 20 17 16 15 16 17 16 15 13 11 10 10 10 10 7 5 3 360 355 351
139 135 133 131 129 127 126 125 122 119 118 117 113 107 102 98 97 97 96 94 91 85 80 77 77 76 74 71 69 69 69 67 64 63 62 61 59 60 60 60 62 64 63 60 57 48 42 38 40 41 43 43 44 45 43 41 39 40 37 33 29 36 39 38 31 31 33 36 37 38 37 35 33 31 28 25 23 23 20 17 17 20 20 18 15 13 12 12 11 12 11 8 4 5 6 6 6 5 4 1 357 353 351
138 135 132 130 128 126 125 123 120 119 117 114 109 104 100 98 99 98 97 94 89 83 81 80 80 79 77 74 71 71 69 67 65 62 60 58 58 58 57 57 56 58 59 56 52 47 45 44 45 48 50 51 50 50 47 43 41 41 38 32 28 35 39 39 33 32 34 37 39 41 42 41 39 36 33 30 28 25 20 17 19 20 19 16 13 13 12 10 7 9 8 5 4 6 6 4 4 4 2 360 355 353 350
137 134 132 130 129 128 126 123 120 118 115 112 107 104 103 102 101 99 95 91 86 83 82 81 79 79 79 77 74 72 70 68 65 60 56 55 54 53 52 50 46 48 48 47 44 44 45 48 51 54 55 55 53 53 50 47 44 42 38 33 30 34 37 37 34 30 30 33 36 36 35 35 34 31 29 28 27 25 22 18 17 17 17 17 15 14 11 9 8 9 7 5 7 7 5 3 3 3 0 358 355 354 354
138 134 133 132 131 129 126 123 120 118 115 112 109 107 106 104 101 96 93 90 88 88 87 85 81 79 79 78 75 72 69 67 64 59 56 55 55 55 53 49 44 43 43 42 40 43 46 50 54 58 58 56 53 52 50 48 46 43 38 34 32 34 35 35 34 31 30 31 33 32 31 29 27 25 25 25 24 24 23 21 17 14 15 17 18 14 10 9 11 11 9 7 8 6 4 2 1 0 359 358 357 358 358
137 135 133 132 131 128 125 122 119 117 115 112 110 108 105 101 97 94 92 92 93 93 91 88 84 81 79 77 74 72 70 69 67 62 60 59 58 58 55 51 46 43 43 44 46 48 50 52 55 59 59 57 55 53 51 49 47 44 40 37 35 35 35 34 34 34 33 33 34 33 30 27 23 23 24 23 22 24 24 22 17 14 15 17 18 13 10 9 12 10 8 7 9 5 1 360 0 0 0 360 0 360 359
137 135 134 133 130 127 124 120 118 116 114 111 109 106 103 101 98 97 96 96 96 95 92 88 85 83 81 78 75 73 72 72 70 66 64 61 59 58 55 52 49 48 48 50 56 58 56 54 55 59 59 59 58 56 55 53 50 46 42 39 37 37 36 37 36 36 36 36 37 36 32 27 22 24 25 25 25 26 26 24 19 17 17 17 16 11 9 9 11 7 5 5 7 2 0 360 1 1 1 1 1 0 360
136 135 133 130 127 123 119 117 114 112 110 107 106 105 104 103 102 101 100 100 99 96 93 90 88 86 84 82 78 75 73 71 69 65 61 58 55 52 51 51 52 54 56 58 61 65 61 56 54 57 59 60 59 56 53 52 50 44 40 38 40 40 40 39 39 39 38 39 40 39 35 29 24 26 26 27 28 29 28 26 22 20 19 17 13 9 8 7 6 3 3 3 3 0 0 2 4 2 1 1 0 0 359
132 130 127 124 121 117 114 111 109 108 106 104 103 103 103 104 104 104 103 102 101 98 96 94 93 90 87 84 79 75 71 68 63 57 54 51 49 44 45 48 54 58 62 62 61 62 62 60 54 54 55 56 55 51 47 44 42 36 34 37 43 44 43 40 39 41 39 38 40 40 37 32 27 25 26 27 28 28 27 26 23 22 19 16 11 7 6 4 2 0 2 3 2 1 2 3 3 1 360 359 358 359 358
125 122 120 118 115 112 110 108 107 106 105 105 104 104 103 103 104 104 104 104 102 100 97 95 94 89 85 81 78 73 69 65 61 55 53 51 49 44 44 48 54 55 58 59 59 58 60 62 58 54 53 53 52 48 43 37 33 30 33 37 45 45 43 39 38 40 37 35 35 36 36 34 30 27 26 26 25 24 23 23 20 19 17 14 9 6 4 1 358 359 1 2 2 1 2 2 0 358 357 356 356 358 1
120 118 116 114 113 110 109 108 107 106 106 106 106 105 105 103 103 103 103 102 100 98 93 89 87 83 80 77 75 72 70 67 63 60 58 56 55 51 50 50 54 50 52 54 57 58 61 64 63 58 55 54 54 50 44 39 35 34 37 41 46 45 42 39 36 37 36 33 32 33 33 32 30 29 29 27 24 23 22 20 16 15 13 10 5 3 1 358 356 358 360 1 360 360 359 357 355 354 354 355 356 1 10
119 117 115 115 113 112 111 111 109 108 107 106 105 104 104 104 103 102 101 99 96 93 89 84 81 79 77 75 72 71 70 68 67 64 62 61 59 55 53 52 55 52 53 57 60 62 65 67 68 63 60 57 56 52 47 42 40 40 42 45 48 46 43 40 38 37 34 32 32 33 32 31 28 28 30 30 28 25 23 21 15 12 10 6 2 358 356 355 355 357 357 357 355 355 354 352 350 351 354 359 2 11 20
121 119 118 118 117 116 115 114 113 111 109 108 106 105 105 105 104 102 100 96 93 89 85 81 78 77 76 74 70 69 69 69 68 67 66 64 62 59 56 55 57 57 60 63 65 67 68 69 70 66 63 61 58 55 49 44 42 43 45 48 50 48 46 43 41 37 34 32 34 35 33 31 26 25 27 30 31 28 25 21 16 10 6 2 358 353 352 352 353 353 353 350 347 348 346 345 345 354 3 9 14 21 26
123 121 120 120 119 119 119 118 115 114 112 111 110 109 108 107 105 102 98 93 89 85 82 79 77 75 73 73 72 70 70 70 69 69 68 67 65 62 60 60 60 60 62 65 67 67 68 69 70 67 64 63 60 56 51 46 42 45 48 51 53 51 48 45 43 38 34 33 33 34 35 33 26 24 25 28 32 30 26 21 16 8 1 356 353 351 351 350 351 350 346 342 338 339 338 341 350 6 16 20 23 27 29
122 121 121 121 121 121 120 118 116 115 113 113 112 111 109 107 103 99 95 91 88 84 82 80 78 75 73 73 75 74 73 72 72 70 69 68 67 66 64 64 64 62 62 63 63 64 65 67 68 65 62 61 58 55 51 47 42 46 50 54 55 53 50 47 43 38 34 31 30 32 35 35 30 24 23 27 34 34 28 21 15 6 357 352 351 350 349 349 349 345 339 333 331 332 334 344 7 22 28 28 26 27 28
122 122 122 122 121 121 121 119 118 117 116 115 114 113 111 107 103 99 95 91 88 84 81 80 80 78 75 73 73 75 75 74 74 72 71 70 69 67 66 65 66 63 62 62 61 61 62 64 66 64 61 59 57 53 51 49 44 46 51 55 56 54 51 47 43 38 33 30 29 28 31 33 32 26 23 24 30 34 30 23 12 3 355 352 354 351 347 347 348 340 331 325 326 328 337 357 27 34 34 31 25 24 26
124 124 123 122 121 122 122 122 121 120 120 120 119 117 113 109 105 102 99 95 91 86 83 82 84 83 79 75 72 75 76 75 74 72 71 70 69 67 66 65 67 64 63 62 61 61 62 64 65 64 63 60 57 54 52 50 46 48 51 55 56 55 52 48 43 39 35 32 29 28 27 27 30 30 28 26 27 31 30 23 12 4 357 354 357 352 350 348 347 336 325 320 324 333 348 13 41 40 35 28 23 22 24
126 125 124 123 123 125 126 126 125 125 125 125 124 122 118 113 109 106 103 101 97 95 94 93 93 91 88 84 78 77 76 75 73 72 71 70 70 69 67 67 68 66 65 64 62 62 63 65 65 65 64 62 59 56 54 52 49 49 52 56 57 56 54 51 46 43 40 37 34 31 28 25 27 34 34 31 28 28 26 21 14 6 359 353 356 352 352 351 348 334 325 322 333 340 357 26 50 42 33 25 20 21 23
128 127 126 127 129 130 130 130 131 132 132 131 130 128 125 121 118 113 109 107 107 108 108 107 103 100 96 91 85 80 76 75 74 74 73 72 71 70 69 68 68 67 66 65 64 64 65 67 67 67 66 64 61 57 55 53 51 50 53 57 58 58 57 54 49 48 45 42 38 35 30 26 26 36 38 36 32 29 24 20 14 7 358 352 5 4 358 353 354 346 335 330 340 336 357 34 55 40 30 23 16 19 21
128 128 129 131 133 134 134 135 135 136 136 135 133 131 129 129 129 126 122 119 119 118 116 113 110 106 101 96 90 85 81 79 78 74 72 72 72 71 71 70 68 67 67 67 67 66 69 71 70 69 68 66 62 59 57 55 53 51 54 57 59 59 57 53 47 45 43 41 38 34 31 28 28 37 40 39 38 32 25 17 14 7 360 358 16 16 6 355 352 351 346 342 349 332 347 30 52 36 26 17 11 16 20
129 130 131 133 135 135 135 135 136 136 135 134 131 129 129 129 130 128 126 125 125 122 118 114 112 109 106 103 100 95 90 86 83 76 72 71 71 72 72 71 70 69 69 69 69 70 71 72 71 70 70 69 65 63 60 57 55 52 54 56 58 58 55 51 47 43 42 40 37 34 32 31 33 35 37 41 43 38 29 19 15 10 10 13 20 13 4 353 342 335 339 351 2 337 345 19 47 36 23 10 4 13 20
132 132 133 135 136 137 137 136 136 135 134 133 131 131 129 128 126 124 124 124 126 124 119 110 100 96 99 102 103 100 95 89 85 80 74 70 70 72 73 73 73 73 72 71 71 72 73 73 72 71 71 71 69 67 64 61 58 55 54 54 55 54 51 47 45 41 40 38 38 37 36 36 38 41 39 37 40 38 31 23 19 16 20 25 29 7 351 335 323 346 356 359 356 349 349 8 40 34 20 5 356 10 21
134 135 135 136 137 137 137 137 136 134 133 132 131 131 130 128 124 118 117 118 120 119 117 112 102 94 93 96 97 97 93 88 85 82 75 70 69 72 74 75 77 77 77 76 74 75 75 75 74 72 71 71 71 70 69 66 63 59 56 54 55 56 54 50 46 44 41 39 38 39 40 40 41 45 49 49 40 36 30 23 19 21 24 27 31 14 359 353 7 23 14 358 346 347 344 351 23 20 8 353 347 12 24
136 137 138 138 137 137 135 134 133 130 128 126 124 122 118 114 110 107 107 108 110 109 109 111 113 111 105 100 96 92 89 86 83 82 79 76 73 73 75 77 80 80 81 79 77 77 77 77 75 73 72 72 73 74 73 70 67 64 60 56 56 59 59 56 50 46 43 41 39 41 43 45 46 45 51 59 53 40 33 25 17 19 22 27 29 25 21 18 15 17 356 318 308 13 357 347 355 360 350 335 325 9 23
139 140 139 138 137 135 133 130 128 125 122 120 118 116 111 107 103 101 100 100 99 98 99 100 106 109 108 104 99 90 86 84 85 85 86 85 81 79 79 80 82 83 82 81 79 78 79 79 79 76 74 74 75 76 75 73 71 68 64 59 56 59 60 59 54 49 46 43 42 43 45 50 54 48 49 55 63 51 40 30 19 16 20 26 30 30 35 38 27 0 343 342 2 42 27 357 336 338 331 319 312 355 14
140 139 138 137 135 133 130 127 125 124 123 122 122 120 117 114 111 110 109 105 101 101 100 100 100 102 104 103 100 98 96 94 94 94 91 88 87 87 86 85 84 84 84 83 81 81 80 81 81 80 78 76 77 78 78 77 74 70 66 62 58 58 59 58 56 52 48 45 42 43 46 52 60 57 53 52 64 63 52 39 28 19 19 24 32 31 35 41 49 34 17 7 2 5 359 344 328 328 325 322 325 357 10
139 138 136 135 132 130 128 126 126 127 127 128 127 126 125 125 126 126 125 123 121 121 122 124 123 125 125 124 122 125 125 121 112 107 102 98 97 94 90 87 87 87 86 84 84 83 83 82 82 83 82 80 79 79 79 79 77 74 70 65 61 61 61 60 57 53 49 45 42 42 44 50 62 65 60 56 60 72 67 54 41 29 20 18 27 31 32 35 45 60 74 81 57 356 333 327 322 336 338 333 322 344 10
138 137 136 134 132 131 130 131 132 132 132 132 131 129 129 131 133 136 138 140 142 144 145 145 144 146 147 147 144 143 139 133 125 117 113 110 104 95 89 87 88 90 90 88 85 86 86 86 84 84 84 83 82 81 81 80 79 78 74 70 66 64 63 61 58 53 50 47 45 44 44 48 59 66 66 62 58 70 71 64 52 40 21 8 6 21 29 31 35 50 78 105 118 160 223 306 321 345 349 336 318 324 341
137 137 136 136 134 133 133 134 135 135 136 137 135 133 134 136 139 142 145 147 149 150 150 150 148 149 151 150 143 141 136 131 125 123 119 113 107 100 94 89 86 91 93 93 90 89 90 90 89 88 87 86 84 84 83 83 82 81 79 75 71 66 64 61 58 54 52 51 52 50 47 48 57 64 67 68 65 68 68 65 58 45 30 9 357 13 21 24 26 29 34 44 56 113 179 186 11 357 346 334 329 327 329
137 137 136 136 136 136 137 139 141 141 142 142 141 139 139 141 144 145 146 147 148 147 148 149 148 148 146 142 136 135 133 129 127 126 122 116 112 108 102 94 86 88 92 96 98 95 94 94 94 93 92 90 87 86 86 86 85 83 80 77 73 68 65 63 60 56 53 52 52 47 44 47 58 65 68 66 64 69 70 70 67 51 36 23 30 30 19 13 18 25 26 20 15 355 348 72 95 82 26 349 344 331 328
138 137 137 137 137 138 140 142 145 146 146 146 145 143 143 144 146 146 145 145 145 146 147 149 149 145 143 141 141 140 136 132 129 128 125 120 117 113 106 99 93 88 90 95 101 100 98 97 97 96 96 95 93 91 90 89 88 84 81 78 74 71 67 65 62 59 56 52 51 42 36 35 42 52 53 48 45 58 67 74 80 65 46 35 48 49 28 7 12 23 22 14 10 356 351 8 61 85 77 35 346 327 323
138 137 137 138 139 141 143 144 147 148 147 146 146 145 143 144 145 146 146 145 145 146 147 147 144 140 139 139 141 137 133 132 131 128 124 120 118 112 107 104 100 94 91 92 96 100 101 101 100 100 99 98 98 97 94 92 90 88 85 81 76 74 70 65 61 58 56 55 55 50 41 32 29 38 43 44 38 43 53 63 76 71 58 47 50 55 42 22 17 18 14 9 9 354 346 351 8 6 18 21 12 345 333
138 137 138 139 141 143 145 146 147 147 144 142 141 140 140 141 143 144 144 143 144 143 143 142 137 134 133 133 134 131 130 131 132 127 122 119 117 113 110 108 105 101 96 92 91 97 100 102 102 102 101 101 101 100 97 94 93 92 90 86 81 77 73 67 60 54 51 50 52 53 50 44 38 43 50 53 49 46 49 57 67 69 64 58 56 56 51 43 39 25 15 10 8 350 346 350 355 350 352 359 5 5 354
139 139 139 141 143 145 146 145 144 141 138 136 134 135 137 139 141 139 140 140 142 141 141 140 138 135 133 132 130 130 131 131 130 125 120 118 118 116 113 111 108 107 102 97 93 95 98 100 101 102 102 102 102 100 99 97 97 96 95 91 86 82 77 70 63 54 48 43 43 46 48 49 52 54 58 60 60 55 53 56 64 69 68 64 61 59 54 49 49 41 35 24 8 355 357 359 355 348 347 349 348 347 357
141 141 141 142 143 144 142 139 136 134 132 131 130 133 136 137 138 138 140 142 142 142 141 141 141 139 136 134 131 131 132 132 129 124 121 120 121 118 115 113 111 108 105 102 101 97 96 97 101 103 103 102 101 101 100 100 100 99 97 93 89 85 79 72 66 59 51 43 39 42 44 47 53 57 60 63 65 64 63 63 65 66 64 61 57 57 53 48 43 45 45 41 27 17 11 5 354 341 337 340 348 344 342
143 141 140 139 139 137 134 131 129 129 128 127 127 130 132 133 134 136 140 142 142 142 142 142 142 140 137 135 134 135 136 135 132 128 126 125 124 120 118 115 112 107 105 106 106 102 99 98 99 102 102 101 99 100 101 103 102 98 94 90 86 84 81 76 72 67 60 51 44 46 47 50 54 59 63 66 70 73 73 71 68 62 57 53 48 52 53 50 42 42 45 47 43 43 41 24 350 328 325 329 344 350 346
143 139 137 135 133 132 131 129 127 126 125 124 124 125 125 125 125 129 133 136 137 139 140 141 141 139 138 138 139 140 142 141 136 132 130 129 127 124 120 115 109 106 106 106 106 105 104 102 100 101 102 102 99 99 100 100 99 95 91 88 87 85 85 83 79 73 66 57 49 50 53 57 59 64 68 70 71 72 71 71 68 63 58 52 46 48 50 51 44 42 44 48 45 44 40 28 357 322 313 320 341 350 346
142 138 136 134 133 134 133 131 129 127 125 123 122 121 120 119 119 123 126 129 129 132 134 136 137 137 138 138 138 140 142 142 137 133 130 129 128 126 121 115 111 111 109 105 103 107 108 108 107 106 105 105 105 102 100 98 96 94 92 92 94 94 92 87 80 74 68 62 56 57 60 64 66 69 71 71 68 66 67 68 68 65 62 58 54 55 54 51 45 42 43 47 46 40 29 11 340 321 316 324 340 346 343
141 139 137 136 136 138 136 134 132 129 125 122 121 119 117 117 118 121 122 123 123 125 127 128 128 130 132 134 132 134 136 136 133 132 131 130 129 128 125 123 125 123 118 111 112 114 115 116 119 116 113 111 111 110 109 107 105 105 103 102 104 105 100 93 85 76 69 65 64 65 68 72 74 73 71 70 69 69 71 73 74 73 72 73 77 78 75 70 60 51 45 42 41 38 20 340 303 313 325 340 347 346 346
143 141 138 137 139 141 139 136 132 127 124 121 119 117 115 116 119 121 121 121 121 124 125 125 123 125 127 128 129 131 132 132 131 132 133 133 131 131 132 132 134 131 128 128 132 128 127 129 133 127 120 116 116 120 119 118 116 115 115 115 114 110 106 101 95 83 74 72 73 75 78 80 81 77 74 74 76 79 80 80 81 82 86 91 94 95 102 114 111 74 50 34 27 20 347 306 294 313 334 351 3 359 357
144 142 138 137 138 139 138 134 129 125 123 121 118 115 114 115 117 118 118 119 121 124 123 122 122 123 123 125 128 131 132 132 130 130 130 130 130 131 133 134 135 133 134 137 138 137 138 141 141 130 121 118 120 123 122 121 118 117 117 118 118 113 109 104 97 88 80 78 81 85 87 88 87 85 83 83 85 83 81 80 81 86 91 92 83 79 80 87 88 75 59 34 0 338 309 298 297 307 330 4 22 17 18